Miscellaneous Local Product
Issued by NWS Hastings, NE

Home | Current Version | Previous Version | Graphics & Text | Print | Product List | Glossary On
Versions: 1 2 3 4 5 6 7 8 9 10 11 12 13 14 15 16 17 18 19 20 21 22 23 24 25 26 27 28 29 30 31 32 33 34 35 36 37 38 39 40 41 42 43 44 45 46 47 48 49 50
000
AXUS43 KGID 061702
MISGRI

GID CWA HOURLY WEATHER ROUNDUP
NATIONAL WEATHER SERVICE HASTINGS NE
1200 PM CDT WED MAY 06 2015

NOTE: "FAIR" INDICATES FEW OR NO CLOUDS BELOW 12,000 FEET WITH NO
SIGNIFICANT WEATHER AND/OR OBSTRUCTIONS TO VISIBILITY.

...SOUTH CENTRAL NEBRASKA...

CITY           SKY/WX    TMP DP  RH WIND       PRES   REMARKS
GRAND ISLAND   CLOUDY    65  58  78 S18G25    29.77S
HASTINGS       CLOUDY    62  58  86 S14       29.76S
KEARNEY        CLOUDY    64  57  77 S22       29.74S
ORD            LGT RAIN  63  59  87 SE16G22   29.71F
YORK           CLOUDY    64  59  82 S21G28    29.79F
AURORA         CLOUDY    64  61  88 S16G25    29.78S
LEXINGTON      CLOUDY    66  60  81 SE18      29.70S
HOLDREGE       CLOUDY    63  58  83 S22G28    29.72S
HEBRON         CLOUDY    63  58  85 S15G25    29.81S

...NEBRASKA PANHANDLE...

CITY           SKY/WX    TMP DP  RH WIND       PRES   REMARKS
CHADRON        CLOUDY    59  52  77 CALM      29.66F
ALLIANCE       CLOUDY    58  51  78 S10G20    29.66F
SCOTTSBLUFF    CLOUDY    60  53  77 E8        29.66F
SIDNEY         CLOUDY    54  53  97 E10       29.65F FOG

...WESTERN AND NORTH CENTRAL NEBRASKA...

CITY           SKY/WX    TMP DP  RH WIND       PRES   REMARKS
VALENTINE      CLOUDY    64  58  80 SE14      29.68F
AINSWORTH      CLOUDY    64  61  91 SE13      29.69F
ONEILL         DRIZZLE   64  61  91 S12       29.73S
BROKEN BOW     CLOUDY    63  59  87 S15       29.71S
IMPERIAL       CLOUDY    60  52  74 SE10      29.67S
NORTH PLATTE   CLOUDY    63  56  78 SE10      29.68F
MCCOOK         CLOUDY    66  54  65 S17G24    29.68S

...EASTERN NEBRASKA...

CITY           SKY/WX    TMP DP  RH WIND       PRES   REMARKS
NORFOLK        LGT RAIN  63  61  93 S17G23    29.78S
SO SIOUX CITY  LGT RAIN  64  60  87 S14       29.83S
TEKAMAH        CLOUDY    72  62  71 S25       29.83S
COLUMBUS       CLOUDY    66  57  72 S21G29    29.81S
ALBION         DRIZZLE   62  60  94 S16       29.77S
OMAHA EPPLEY   CLOUDY    70  60  70 S21G32    29.85S
OFFUTT AFB     CLOUDY    70  61  73 S23       29.85S
MILLARD        CLOUDY    70  61  72 S18G26    29.85R
LINCOLN        LGT RAIN  66  60  81 S23G29    29.82S
NEBRASKA CITY  CLOUDY    69  58  66 S26G36    29.88S
BEATRICE       LGT RAIN  62  59  90 S9        29.84S
FALLS CITY     PTSUNNY   70  59  68 S22G31    29.90R

...NORTHERN KANSAS...

CITY           SKY/WX    TMP DP  RH WIND       PRES   REMARKS
GOODLAND       CLOUDY    56  52  86 S12       29.68F
HILL CITY      CLOUDY    64  55  72 S17G25    29.71F
NORTON         CLOUDY    61  52  72 SE13G18   29.71S
PHILLIPSBURG   CLOUDY    66  59  77 SE15G24   29.73F
SMITH CENTER   CLOUDY    63  57  82 SE17G25   29.76F
HAYS           CLOUDY    70  57  64 S22G30    29.72F
RUSSELL        CLOUDY    68  62  81 S23G32    29.72F
CONCORDIA      CLOUDY    65  60  84 S23G30    29.80S
SALINA         CLOUDY    68  61  78 S29G38    29.81F
TOPEKA         LGT RAIN  64  61  90 SE10G23   29.94R



USA.gov is the U.S. government's official web portal to all federal, state and local government web resources and services.